Simultaneous Nadir Overpasses (SNOs) Predictions

Prediction of SNOs between GOES-16 and NPP Satellite Orbit:

Table of predicted SNOs for the next 14.0 days since TLE Epoch: 10/26/2024
Index Date Time (GOES-16) GOES-16 Lat,Lon NPP Lat,Lon Distance(km) Time Diff (sec)
1 10/26/2024 18:38:36 -0.02, -75.21 -0.79, -78.67 393.59 80
2 10/27/2024 18:22:32 -0.02, -75.22 0.20, -74.13 123.57 80
3 10/29/2024 06:44:21 0.02, -75.22 0.94, -79.42 477.52 80
4 10/30/2024 06:22:57 0.02, -75.23 -0.06, -74.88 39.98 80
5 11/01/2024 18:26:10 -0.02, -75.28 -0.08, -75.66 43.05 80
6 11/02/2024 18:10:05 -0.02, -75.30 0.93, -71.13 474.93 80
7 11/04/2024 06:31:53 0.02, -75.30 0.24, -76.40 125.22 80
8 11/05/2024 06:10:29 0.02, -75.31 -0.78, -71.87 392.65 80
9 11/06/2024 18:32:25 -0.01, -75.35 -0.41, -77.18 207.85 80
10 11/07/2024 18:16:21 -0.01, -75.37 0.62, -72.65 310.36 80
